Weather History for Spokane Felts, WA

Change the Weather History Date:

Sunday, January 13, 2013

  Actual Average Record
Temperature  
Mean Temperature 20 °F 31 °F  
Max Temperature 25 °F 36 °F 50 °F (2014)
Min Temperature 15 °F 26 °F 1 °F (2007)
Degree Days  
Heating Degree Days 45 34  
Month to date heating degree days 478 451  
Since 1 July heating degree days 2646 3120  
Cooling Degree Days 0 0  
Month to date cooling degree days 0 0  
Year to date cooling degree days 0 0  
Moisture  
Dew Point 13 °F    
Average Humidity 75    
Maximum Humidity 88    
Minimum Humidity 62    
Precipitation  
Precipitation T in 0.06 in 0.33 in (2011)
Month to date precipitation 0.86 0.89  
Year to date precipitation 0.86 0.89  
Sea Level Pressure  
Sea Level Pressure 30.42 in    
Wind  
Wind Speed 2 mph (South)    
Max Wind Speed 10 mph    
Max Gust Speed 10 mph    
Visibility 7 miles    
Events Snow    
T = Trace of Precipitation, MM = Missing Value Source: NWS Daily Summary

Daily Weather History Graph

Daily Weather History Graph

Search for Another Location

Airport:

Trip Planner

Search our weather history database for the weather conditions in past years. The results will help you decide how hot, cold, wet, or windy it might be!

Date:

Astronomy

Jan. 13, 2013 Rise Set
Actual Time 7:34 AM PST 4:22 PM PST
Civil Twilight 6:59 AM PST 4:57 PM PST
Nautical Twilight 6:20 AM PST 5:36 PM PST
Astronomical Twilight 5:43 AM PST 6:13 PM PST
Moon 8:22 AM PST (1/13) 7:21 PM PST (1/13)
Length of Visible Light 9h 58m
Length of Day
8h 48m
Waxing Crescent, 6% of the Moon is Illuminated
Jan 13
Waxing Crescent
Jan 18
First Quarter
Jan 26
Full
Feb 3
Last Quarter
Feb 9
New

Hourly Weather History & Observations

Time (PST) Temp. Windchill Dew Point Humidity Pressure Visibility Wind Dir Wind Speed Gust Speed Precip Events Conditions
12:29 AM 19.4 °F - 14.0 °F 80% 30.30 in 8.0 mi Calm Calm - N/A   Overcast
12:53 AM 19.0 °F - 14.0 °F 81% 30.39 in 7.0 mi Calm Calm - N/A   Overcast
1:10 AM 19.4 °F - 14.0 °F 80% 30.30 in 6.0 mi Calm Calm - N/A   Haze
1:53 AM 19.0 °F - 15.1 °F 85% 30.40 in 3.0 mi Calm Calm - 0.00 in Snow Light Snow
2:07 AM 19.4 °F 14.3 °F 14.0 °F 80% 30.31 in 2.5 mi ENE 3.5 mph - 0.00 in Snow Light Snow
2:41 AM 19.4 °F - 14.0 °F 80% 30.32 in 1.8 mi Calm Calm - 0.00 in Snow Light Snow
2:48 AM 19.4 °F 14.3 °F 14.0 °F 80% 30.31 in 2.0 mi East 3.5 mph - 0.00 in Snow Light Snow
2:53 AM 18.0 °F 12.7 °F 14.0 °F 84% 30.40 in 2.5 mi East 3.5 mph - 0.00 in Snow Light Snow
3:08 AM 17.6 °F - 12.2 °F 79% 30.31 in 3.0 mi Calm Calm - 0.00 in   Haze
3:32 AM 17.6 °F - 12.2 °F 79% 30.31 in 5.0 mi Calm Calm - 0.00 in   Haze
3:53 AM 17.1 °F - 12.0 °F 81% 30.41 in 6.0 mi Calm Calm - 0.00 in   Haze
4:53 AM 17.1 °F - 12.0 °F 81% 30.41 in 8.0 mi Calm Calm - N/A   Overcast
5:53 AM 16.0 °F - 10.9 °F 81% 30.43 in 6.0 mi Calm Calm - N/A   Haze
6:53 AM 16.0 °F - 12.0 °F 84% 30.47 in 7.0 mi Calm Calm - N/A   Overcast
7:53 AM 16.0 °F - 10.9 °F 81% 30.49 in 6.0 mi Calm Calm - 0.00 in Snow Light Snow
8:53 AM 17.1 °F - 12.9 °F 84% 30.50 in 6.0 mi Calm Calm - 0.00 in Snow Light Snow
9:53 AM 19.0 °F 11.1 °F 14.0 °F 81% 30.48 in 6.0 mi South 5.8 mph - 0.00 in   Haze
10:53 AM 19.9 °F 14.9 °F 14.0 °F 78% 30.48 in 10.0 mi SW 3.5 mph - N/A   Mostly Cloudy
11:53 AM 24.1 °F 19.7 °F 14.0 °F 65% 30.47 in 10.0 mi North 3.5 mph - N/A   Scattered Clouds
12:53 PM 23.0 °F - 14.0 °F 68% 30.45 in 10.0 mi Calm Calm - N/A   Scattered Clouds
1:53 PM 23.0 °F 18.4 °F 12.9 °F 65% 30.46 in 10.0 mi SW 3.5 mph - N/A   Scattered Clouds
2:53 PM 23.0 °F - 12.0 °F 63% 30.45 in 10.0 mi Calm Calm - N/A   Scattered Clouds
3:53 PM 23.0 °F - 12.0 °F 63% 30.46 in 10.0 mi Calm Calm - N/A   Scattered Clouds
4:12 PM 23.0 °F - 12.2 °F 63% 30.37 in 10.0 mi Calm Calm - N/A   Mostly Cloudy
4:53 PM 21.9 °F 13.4 °F 12.0 °F 66% 30.47 in 10.0 mi SSW 6.9 mph - N/A   Overcast
5:02 PM 21.2 °F 12.6 °F 12.2 °F 68% 30.37 in 10.0 mi SSW 6.9 mph - N/A   Overcast
5:53 PM 19.9 °F 12.1 °F 12.0 °F 71% 30.47 in 10.0 mi SSW 5.8 mph - N/A   Scattered Clouds
6:53 PM 19.9 °F 14.9 °F 12.0 °F 71% 30.48 in 10.0 mi WSW 3.5 mph - N/A   Scattered Clouds
7:53 PM 19.9 °F - 10.9 °F 68% 30.48 in 10.0 mi Calm Calm - N/A   Overcast
8:53 PM 19.9 °F 14.9 °F 12.0 °F 71% 30.48 in 10.0 mi ENE 3.5 mph - N/A   Overcast
9:53 PM 19.9 °F - 12.0 °F 71% 30.48 in 10.0 mi Calm Calm - N/A   Overcast
10:53 PM 19.9 °F - 12.9 °F 74% 30.47 in 8.0 mi Calm Calm - N/A   Overcast
11:53 PM 19.9 °F - 12.0 °F 71% 30.47 in 10.0 mi Calm Calm - N/A   Overcast